Погода в Коноваловке

Россия / Самарская область     53°06′16″N   51°32′26″E
темп.,
°C
ветер,
м/с
пор.,
м/с
влажн.,
%
обл.,
%
осадки,
мм/ч
давл.,
гПа
погр.,
м
27 февраля, сб
сб2701:00−10ююв91794100 3.0 1006536
04:00−8ююв71395100 7.9 1002477
07:00−4ю5895100 0.8 1000253
10:00+1зюз410100100 1.1 999476
13:00+1зюз510100100 0.1 999509
16:00+1зюз599999 0.1 999527
19:000юз4898100 0.4 998406
22:000юз4798100 1.2 998351
28 февраля, вс
вс2801:00−1юз2699100 0.8 997224
04:00−1зюз3499100 1.6 998127
07:00−8сз7109496 0.8 1000265
10:00−10сз699398 1.0 1003350
13:00−9ссз6892100 0.1 1005445
16:00−10сз5891100 0.2 1008497
19:00−12ссз499398 0.1 1011408
22:00−15ссз479498 0.2 1013263
1 марта, пн
пн101:00−19сз359587 0.0 101588
04:00−21сз349683 0.0 101764
07:00−23сз33967 0.0 101833
10:00−20ссз35947 0.0 1020202
13:00−17сз359152 0.0 1021323
16:00−16сз359269 0.0 1022321
19:00−20сз339724 0.0 102325
22:00−22зсз229712 0.0 102320
2 марта, вт
вт201:00−22зюз239916 0.0 102220
04:00−22юз339835 0.0 102131
07:00−22ююз359848 0.0 101986
10:00−16ююз599366 0.0 1017308
13:00−12ююз61193100 0.1 1014409
16:00−9ююз71394100 1.1 1011614
19:00−6ююз61394100 1.0 1008586
22:00−4ююз51194100 1.6 1006456
3 марта, ср
ср301:00−4ююз489699 0.4 1003266
04:00−4ю2597100 1.3 1002197
07:00−4юз1198100 1.2 100121
10:00−3ссз3596100 2.1 1002281
13:00−2ссз5694100 0.1 1003476
16:00−4сз6994100 0.3 1003403
19:00−7ссз51193100 0.0 1004343
22:00−10ссз4109496 0.0 1006203